Content
SEND FEEDBACK

Daily
Averages
Monthly
Summary
United States of America

ANN ARBOR, MICHIGAN


Home > North America > United States > Michigan
Elevation: 759 feet     Latitude: 42 17N     Longitude: 083 43W

WEATHER
 
SELECT A DAY
Number of Records: 203,747;   Date Range: 1/1/95 - 8/17/14
 
SHARE

PRINT THIS DATA

[ ← Previous Day ]
WEATHER ALMANAC - MARCH 12, 2013
[ Next Day → ]
[ °C ]   °F
Weather ElementAverageHighLow
Temperature33.6 °F36 °F (1:53 am)28.9 °F (10:53 pm)
Dewpoint27.8 °F30.9 °F (1:53 am)24.1 °F (5:53 pm)
Humidity79.6 %93 % (8:35 pm)67 % (5:53 pm)
Barometer29.84 in29.94 in (9:53 pm)29.73 in (1:53 am)
Wind Speed12.1 mph17.3 mph (10:53 am)
Wind Gust23 mph (1:53 am)
Weather ElementAverage
Visibility8.8 mi
Wind DirectionWSW (248.9 °)

Weather ElementTotal
Precipitation0.01 in
Heating Degree Days32.6 (Base 65)
Averaged from 37 records on March 12, 2013
WEATHER CONDITIONS BREAKOUT
WIND DIRECTION BREAKOUT
WEATHER BY HOUR - MARCH 12, 2013
[ °C ]   °F
Local TimeTemperatureDewpointHumidityBarometerVisibilityWind DirectionWind SpeedGust SpeedPrecipitationEventsConditions
1:53 AM36.0 °F30.9 °F82 %29.73 in10.0 miWSW (240°)13.8 mph23.0 mphOvercast
2:53 AM36.0 °F30.0 °F79 %29.75 in10.0 miWSW (240°)16.1 mphOvercast
3:53 AM35.1 °F30.0 °F82 %29.75 in10.0 miWSW (250°)12.7 mphOvercast
4:30 AM33.8 °F30.2 °F87 %29.74 in10.0 miWest (260°)9.2 mphOvercast
4:53 AM34.0 °F30.0 °F85 %29.76 in10.0 miWSW (240°)9.2 mphOvercast
5:14 AM33.8 °F30.2 °F87 %29.75 in9.0 miWSW (250°)9.2 mphOvercast
5:50 AM33.8 °F30.2 °F87 %29.76 in10.0 miWSW (250°)9.2 mphOvercast
5:53 AM34.0 °F30.0 °F85 %29.77 in10.0 miWSW (250°)10.4 mphOvercast
6:53 AM34.0 °F30.0 °F85 %29.80 in10.0 miWSW (240°)11.5 mphOvercast
7:27 AM33.8 °F28.4 °F81 %29.79 in10.0 miWest (260°)11.5 mphOvercast
7:53 AM34.0 °F27.0 °F75 %29.81 in10.0 miWest (260°)10.4 mphOvercast
8:53 AM33.1 °F28.9 °F85 %29.83 in9.0 miSW (230°)10.4 mph0.00 inOvercast
9:40 AM33.8 °F28.4 °F81 %29.82 in10.0 miWSW (240°)9.2 mphOvercast
9:53 AM34.0 °F28.9 °F82 %29.85 in10.0 miWSW (250°)13.8 mph20.7 mphOvercast
10:01 AM33.8 °F28.4 °F81 %29.83 in10.0 miWSW (250°)11.5 mphOvercast
10:53 AM35.1 °F28.9 °F78 %29.86 in10.0 miWSW (250°)17.3 mph0.00 inOvercast
11:53 AM36.0 °F30.0 °F79 %29.86 in10.0 miWSW (240°)12.7 mph0.00 inOvercast
12:53 PM34.0 °F28.0 °F79 %29.87 in3.0 miWNW (290°)10.4 mph0.00 inSnowLight Snow
1:01 PM33.8 °F28.4 °F81 %29.85 in2.5 miWNW (290°)11.5 mph0.00 inSnowLight Snow
1:53 PM33.1 °F28.9 °F85 %29.88 in2.5 miWSW (240°)16.1 mph20.7 mph0.00 inSnowLight Snow
2:05 PM35.6 °F28.4 °F75 %29.85 in6.0 miSW (230°)16.1 mph0.00 inSnowLight Snow
2:53 PM34.0 °F28.0 °F79 %29.88 in6.0 miWSW (250°)13.8 mph23.0 mph0.01 inSnowLight Snow
3:11 PM35.6 °F28.4 °F75 %29.84 in10.0 miWest (260°)17.3 mph0.00 inOvercast
3:53 PM35.1 °F26.1 °F70 %29.87 in10.0 miWSW (250°)15.0 mph21.9 mph0.00 inOvercast
4:14 PM35.6 °F26.6 °F70 %29.85 in10.0 miWSW (250°)17.3 mphOvercast
4:53 PM34.0 °F25.0 °F70 %29.88 in10.0 miWSW (250°)15.0 mphOvercast
5:53 PM34.0 °F24.1 °F67 %29.90 in10.0 miWest (260°)16.1 mphOvercast
6:19 PM33.8 °F24.8 °F70 %29.88 in10.0 miWest (260°)15.0 mphOvercast
6:28 PM33.8 °F24.8 °F70 %29.88 in10.0 miWest (260°)12.7 mphOvercast
6:53 PM34.0 °F24.1 °F67 %29.91 in10.0 miWSW (240°)11.5 mphOvercast
7:53 PM33.1 °F26.1 °F75 %29.92 in7.0 miWSW (240°)12.7 mph0.00 inSnowLight Snow
8:09 PM32.0 °F28.4 °F87 %29.90 in3.0 miWest (260°)12.7 mph19.6 mph0.00 inSnowLight Snow
8:35 PM30.2 °F28.4 °F93 %29.90 in8.0 miWest (270°)9.2 mph0.00 inOvercast
8:53 PM30.0 °F26.1 °F85 %29.93 in10.0 miWSW (250°)8.1 mph0.00 inScattered Clouds
9:53 PM30.0 °F24.1 °F79 %29.94 in10.0 miSW (230°)8.1 mphScattered Clouds
10:53 PM28.9 °F24.1 °F82 %29.93 in10.0 miSSW (210°)5.8 mphMostly Cloudy
11:53 PM30.0 °F26.1 °F85 %29.92 in9.0 miSW (220°)5.8 mphOvercast
Hourly data recorded from KARB, located miles away from Ann Arbor, Michigan







STORIES FROM OUR PARTNERS